Regional Weather Roundup
Issued by NWS

Home | Current Version | Previous Version | Text Only | Print | Product List | Glossary Off
Versions: 1 2 3 4 5 6 7 8 9 10 11 12 13 14 15 16 17 18 19 20 21 22 23 24 25 26 27 28 29 30 31 32 33 34 35 36 37 38 39 40 41 42 43 44 45 46 47 48 49 50

000
ASUS45 KSLC 050510
RWRUT

UTAH REGIONAL WEATHER ROUNDUP
NATIONAL WEATHER SERVICE SALT LAKE CITY UT
1100 PM MDT WED MAY 04 2016

UTZ001>011-023>025-050600-

NORTHERN UTAH

CITY           SKY/WX    TMP DP  RH WIND       PRES   REMARKS
BRIGHAM CITY   CLOUDY    69  31  24 E5        29.96F
HILL AFB       CLOUDY    67  33  27 E16       29.98S
LOGAN          CLOUDY    64  36  35 S15       29.99S
OGDEN          CLOUDY    63  38  39 SE6       29.96S
PROVO AIRPORT  CLOUDY    66  34  30 S14       29.98R
SALT LAKE CITY CLOUDY    64  41  42 SW7       29.95R
VERNAL         CLOUDY    57  30  35 NW5       30.09S
WENDOVER       PTCLDY    63  43  48 NE10      29.95R
HEBER CITY     CLOUDY    52  36  54 CALM      30.05S

$$

UTZ012>022-026-027-050600-

SOUTHERN/CENTRAL UTAH

CITY           SKY/WX    TMP DP  RH WIND       PRES   REMARKS
BLANDING       CLEAR     56  28  34 NE10      30.21S
BRYCE CANYON   MOCLDY    41  33  73 W6        30.19R
CEDAR CITY     MOCLDY    58  34  40 SE8       30.03R
DELTA          MOCLDY    61  34  36 SE10      29.98S
HANKSVILLE     CLEAR     61  32  33 E3        30.04R
MILFORD        MOCLDY    58  30  34 W12       29.98S
MOAB/CYNLANDS  CLEAR     63  29  27 CALM      30.03S
PRICE          PTCLDY    60  25  26 E5        30.11S
ST GEORGE      CLOUDY    72  36  26 SE9       29.89S
KANAB          MOCLDY    57  37  47 N3        30.05R

$$

REGIONAL REPORTS     COLORADO/ARIZONA

CITY           SKY/WX    TMP DP  RH WIND       PRES   REMARKS
CRAIG, CO      CLOUDY    45  36  70 CALM      30.18R
GRAND JUNCTION CLEAR     59  35  40 E8        30.09R
RIFLE          CLEAR     52  33  48 SE7       30.14R
MONTROSE       CLEAR     53  32  44 SE12      30.18R
CORTEZ         CLEAR     48  30  49 VRB3      30.18R
PAGE, AZ       PTCLDY    77  24  14 S10       29.96R
GRAND CANYON   CLEAR     46  30  53 NE5       30.15R
KINGMAN        MOCLDY    72  25  17 S12       29.91R
FLAGSTAFF      CLEAR     44  27  51 CALM      30.18S

$$

REGIONAL REPORTS    NEVADA/IDAHO/WYOMING

CITY           SKY/WX    TMP DP  RH WIND       PRES   REMARKS
LAS VEGAS, NV  MOCLDY    82  28  14 S5        29.75S
ELY            PTCLDY    48  29  47 S10       30.04S
ELKO           MOCLDY    59  40  49 N5        29.93R
POCATELLO, ID  CLOUDY    59  37  44 E3        29.98F
BURLEY         CLOUDY    57  43  59 CALM      29.92F
EVANSTON, WY   CLOUDY    57  27  31 NE6       30.16S
ROCK SPRINGS   CLOUDY    54  26  34 S7        30.16S
KEMMERER         N/A     52  30  43 NW9       30.18S

$$



USA.gov is the U.S. government's official web portal to all federal, state and local government web resources and services.